User: anonymous   Login
Location: Hyderabad
(17.3833°N, 78.4667°E)
Time: 23:54:32
(UTC+05:30)
Language:

H-2A R/B - Orbit

View from above orbital plane
View from above orbital plane
View from above satellite
View from above satellite

Ground track
Ground track

The orbit data is extracted from the following two-line orbital elements,

1 26899U 01038B   17291.35296243 +.00000610 +00000-0 +22322-3 0  9991
2 26899 028.4528 015.2353 7116184 269.6115 016.1935 02.48191583139540
Epoch (UTC): 18 October 2017 08:28:15
Eccentricity: 0.7116184
inclination: 28.4528°
perigee height: 267 km
apogee height: 33063 km
right ascension of ascending node: 15.2353°
argument of perigee: 269.6115°
revolutions per day: 2.48191583
mean anomaly at epoch: 16.1935°
orbit number at epoch: 13954

The dashed part of the orbit path shows where the satellite is in the earth's shadow,  

DLR